Simultaneous Nadir Overpasses (SNOs) Predictions

Prediction of SNOs between METOP-A and TERRA Satellite Orbit:

Table of predicted SNOs for the next 14.0 days since TLE Epoch: 2/3/2017
Index Date (METOP-A) Time (METOP-A) Lat,Lon (METOP-A) SZA (METOP-A ) Date (TERRA) Time (TERRA) Lat,Lon (TERRA) SZA (TERRA ) Distance(km) Time Diff (sec)
1 02/04/2017 19:02:10 -81.31, 121.53 80.42 02/04/2017 19:02:22 -81.30, 121.48 80.43 1.14 12
2 02/04/2017 19:52:50 81.32, -70.70 99.62 02/04/2017 19:51:48 81.31, -70.75 99.59 1.07 62
3 02/07/2017 14:36:31 -81.31,-171.79 81.26 02/07/2017 14:36:36 -81.32,-171.81 81.26 0.60 5
4 02/07/2017 15:27:11 81.32, -4.03 98.78 02/07/2017 15:26:02 81.32, -4.06 98.75 0.74 69
5 02/10/2017 09:20:12 81.31, 86.96 97.82 02/10/2017 09:21:23 81.31, 86.85 97.84 1.72 71
6 02/10/2017 10:10:52 -81.31,-105.51 82.18 02/10/2017 10:10:50 -81.31,-105.57 82.19 1.23 2
7 02/13/2017 04:54:34 81.31, 153.20 96.87 02/13/2017 04:55:37 81.31, 153.36 96.92 2.82 63
8 02/13/2017 05:45:14 -81.31, -39.24 83.12 02/13/2017 05:45:04 -81.31, -39.04 83.10 3.27 10
9 02/16/2017 00:28:55 81.31,-140.17 95.94 02/16/2017 00:29:51 81.31,-140.21 95.96 0.85 56




NCC Satellite Simultaneous Nadir Overpasses (SNOs) Prediction Service
